COSMOS 1275 DEB, 12767

Orbit data source: Space-Track

COSMOS 1275 DEB, 12767 is space debris in LEO originally from a launch on Thu, 04 Jun 1981 UTC launched from the Plesetsk Missile And Space Complex (PKMTR). Debris objects in space refer to the collection of defunct objects orbiting the Earth. Examples of debris include non-operational satellites, rocket bodies, and fragments generated from explosions, collisions, or faulty payload assembly.

Loading next visibility...
Identifier
12767, 1981-053DL
Orbit
LEO
Country
Flag of CISCIS
Related business
Manufacturer
Unknown
Mission
Spacecraft
Bus & Motor
Unknown
Mass
Unknown
Launch date (UTC)
1981-06-04 (44 years ago)
Launch vehicle
Unknown
Launch site
Plesetsk Missile And Space Complex (PKMTR)
Object type
Payload
Rocket body
Debris
Shape & HBR
Unknown shape, 0.1 m
Radar Cross Section
Small (<0.1 m²)

Expand to show TLE details & history
Last TLE update: 10 hours ago

TLE from 10 hours ago
0 COSMOS 1275 DEB
1 12767U 81053DL  25296.12566777  .00001367  00000-0  74328-3 0  9999
2 12767  82.9544 303.0131 0049650 102.3838 327.0905 14.11006471257967
Epoch: 2025-10-23T03:00Z
TLE epoch observation values (Epoch: 2025-10-23T03:00:57.695Z)
Latitude
68.13543°
Longitude
-116.17631°
Altitude
837.622 km
Speed
7.456 km/s
True Right ascension
21h 23m 24s
True Declination
68° 01' 03"
Sunlit
Object was in daylight at epoch
Visualization orbit readout
Latitude
Unknown
Longitude
Unknown
Altitude
Unknown
Speed
Unknown
Apparent Right ascension
Unknown
Apparent Declination
Unknown
Sunlit
N/A
Visualization observer readout
Local Sidereal Time
08:05:45
Azimuth
Unknown
Elevation
Unknown
Doppler factor
Unknown
Orbital elements
Apogee altitude
888.931 km
Perigee altitude
817.125 km
Semi-major axis
7,231.165 km
Eccentricity
0.00497
Inclination
82.9544°
RAAN
303.0131°
Arg. of periapsis
102.3838°
True anomaly
326.77977°
Mean anomaly
327.0905°
Eccentric anomaly
326.9353°
Mean motion
3.52964 °/min
Orbital period
101.99 mins
BSTAR
0.00074328
Loading maneuver chart data...
Computing Atmospheric mass density...

Documentation

Showing up to 5 results
|